Regional Weather Roundup
Issued by NWS

Home | Current Version | Previous Version | Graphics & Text | Print | Product List | Glossary On
Versions: 1 2 3 4 5 6 7 8 9 10 11 12 13 14 15 16 17 18 19 20 21 22 23 24 25 26 27 28 29 30 31 32 33 34 35 36 37 38 39 40 41 42 43 44 45 46 47 48 49 50
000
ASUS43 KLMK 240910
RWRKY
KENTUCKY REGIONAL WEATHER ROUNDUP
NATIONAL WEATHER SERVICE LOUISVILLE KY
500 AM EDT THU JUL 24 2014

NOTE "FAIR" INDICATES FEW OR NO CLOUDS BELOW 12,000 FEET
WITH NO SIGNIFICANT WEATHER AND/OR OBSTRUCTIONS TO VISIBILITY.

KYZ001>023-026-027-061>063-070>075-241000-
WESTERN AND SOUTH CENTRAL KENTUCKY

CITY           SKY/WX    TMP DP  RH WIND       PRES   REMARKS
PADUCAH        CLEAR     63  56  78 N5        30.02S
HENDERSON      PTCLDY    61  54  77 N5        30.01R
OWENSBORO      CLOUDY    67  58  72 N6        30.00R
HOPKINSVILLE   CLOUDY    72  69  92 NW6       29.97S
BOWLING GREEN  CLOUDY    72  66  81 N5        29.96S
GLASGOW        CLOUDY    71  71 100 NW3       29.95S
$$

KYZ024-025-028>034-038-045-046-053-241000-
NORTH CENTRAL KENTUCKY

CITY           SKY/WX    TMP DP  RH WIND       PRES   REMARKS
LOUISVILLE/SDF CLOUDY    71  66  84 N12       29.97R
LOUISVILLE/LOU CLOUDY    70  66  87 N7        29.97S
FORT KNOX      CLOUDY    69  66  92 NW6       29.97R
$$

KYZ035>037-039>044-047>052-055>060-089>105-241000-
NORTHEAST KENTUCKY

CITY           SKY/WX    TMP DP  RH WIND       PRES   REMARKS
LEXINGTON      CLOUDY    71  67  87 N12       29.96R
COVINGTON      MOCLDY    65  54  67 NE12      30.00R
FRANKFORT      CLOUDY    68  65  90 N9        29.96R
$$

KYZ054-064>069-076>088-106>120-241000-
SOUTHEAST KENTUCKY

CITY           SKY/WX    TMP DP  RH WIND       PRES   REMARKS
JACKSON        FOG       68  67  96 CALM      29.96S VSB 1/4
LONDON         FOG       69  67  93 CALM      29.96F VSB 1/2
SOMERSET       CLOUDY    70  70 100 CALM      29.97R FOG
MIDDLESBORO    CLOUDY    67  67 100 CALM      29.97S FOG
MONTICELLO     CLOUDY    70  70 100 CALM      29.98R FOG
$$



USA.gov is the U.S. government's official web portal to all federal, state and local government web resources and services.